User: anonymous   Login
Location: Unspecified
(0.0000°N, 0.0000°E)
Time: 23:03:47
(UTC+00:00)
Language:

AISAT - Orbit

View from above orbital plane
View from above orbital plane
View from above satellite
View from above satellite

Ground track
Ground track

The orbit data is extracted from the following two-line orbital elements,

1 40054U 14034B   18343.88791843  .00000393  00000-0  62513-4 0  9998
2 40054  98.2157  97.4224 0014075 111.5456 248.7255 14.77625022239558
Epoch (UTC): 09 December 2018 21:18:36
Eccentricity: 0.0014075
inclination: 98.2157°
perigee height: 627 km
apogee height: 647 km
right ascension of ascending node: 97.4224°
argument of perigee: 111.5456°
revolutions per day: 14.77625022
mean anomaly at epoch: 248.7255°
orbit number at epoch: 23955

The dashed part of the orbit path shows where the satellite is in the earth's shadow,  

DLR